Location: *
(38.0596°S, 79.7015°E)
Time: 00:11:17
(UTC+00:00)

Daily predictions for brighter satellites

Satellite Brightness Start Highest point End
(mag) Time Altitude Azimuth Time Altitude Azimuth Time Altitude Azimuth
Cosmos 2058 3.5 00:07:24 36° W 00:07:34 36° W 00:11:27 10° NNW
FALCON 9 DEB 3.6 00:07:36 34° SSW 00:08:38 50° SE 00:11:46 10° ENE
Cosmos 1850 Rocket 3.9 00:03:27 10° NNW 00:08:44 81° WSW 00:14:03 10° SSE
CZ-4B R/B 3.9 00:06:09 10° NNW 00:09:50 30° W 00:09:50 30° W
Cosmos 2227 4.1 00:08:05 10° NNW 00:13:44 81° WSW 00:19:28 10° SSE
SMAP 3.0 00:09:33 10° NNE 00:14:15 89° ESE 00:19:00 10° SSW
Cosmos 1092 Rocket 4.2 00:09:23 10° SSW 00:15:33 50° W 00:21:38 10° NNW
Gbstr 26 Del rocket 4.1 00:17:42 21° SW 00:18:11 21° SSW 00:21:16 10° SSE
Cosmos 2227 Rocket 4.1 00:20:37 11° SSW 00:20:37 11° SSW 00:21:29 10° SSW
Cosmos 1741 Rocket 4.0 00:15:01 10° NNW 00:20:17 67° WSW 00:25:38 10° SSE
Cosmos 2279 Rocket 3.9 00:14:08 10° N 00:20:24 81° W 00:26:44 10° S
Cosmos 2026 Rocket 4.0 00:16:59 10° SSW 00:23:03 54° W 00:28:59 10° NNW
H-2A R/B 4.1 00:19:33 10° NE 00:24:09 28° ESE 00:28:43 10° S
Cosmos 1633 2.4 00:20:57 10° SSW 00:24:37 71° W 00:28:15 10° N
SL-4 R/B 2.3 00:22:46 19° SW 00:25:34 59° SE 00:29:19 10° ENE
Cosmos 1812 Rocket 3.7 00:22:26 10° NNW 00:26:38 47° W 00:30:55 10° S
USA 229 DEB 3.5 00:22:50 11° SW 00:29:20 68° WNW 00:35:37 10° NNE
USA 229 3.5 00:22:54 11° SW 00:29:26 69° WNW 00:35:42 10° NNE
FengYun 1-2 T 4.2 00:23:59 10° N 00:29:40 78° WNW 00:35:22 10° SSW
CZ-4B DEB 4.4 00:26:08 10° N 00:31:34 55° W 00:37:04 10° SSW
Cosmos 1939 Rocket 2.9 00:28:11 10° NNE 00:32:07 85° E 00:36:10 10° S
Aureole 1 Rocket 4.4 00:30:47 10° NNW 00:37:40 70° WSW 00:46:03 10° SSE
Spot 2 4.2 00:33:24 10° NNE 00:37:49 86° WNW 00:42:36 10° SSW
H-2A R/B 2.5 00:33:42 10° SSE 00:37:59 66° ENE 00:42:17 10° N
DELTA 2 R/B (1) 3.6 00:34:02 17° WSW 00:38:28 89° S 00:44:07 10° ENE
DEBRIS 3.9 00:32:40 10° NW 00:38:30 43° NNE 00:40:59 10° ESE
COSMO-SKYMED 1 3.1 00:35:19 10° SSE 00:39:43 66° E 00:44:03 10° N
X-37B 2.1 00:38:50 15° SW 00:40:56 27° S 00:43:45 10° ESE
Meteor 2-21 4.5 00:34:45 10° S 00:40:58 89° W 00:47:03 10° N
CZ-2C R/B 3.2 00:35:36 10° NNE 00:41:10 88° ESE 00:46:30 10° SSW
CZ-3 R/B 3.2 00:28:50 10° WNW 00:43:09 39° N 00:48:08 10° ENE
Cosmos 1766 Rocket 4.4 00:41:48 10° S 00:46:10 54° E 00:50:27 10° NNE
FALCON 9 DEB 3.4 00:45:13 15° WSW 00:47:33 44° NW 00:50:36 10° NNE
Cosmos 2266 Rocket 4.4 00:41:40 10° S 00:48:04 71° E 00:54:28 10° NNE
CZ-4B R/B 3.3 00:45:42 10° SSE 00:48:50 35° E 00:51:58 10° NNE
NOSS 3-1 (A) 3.5 00:43:49 10° SW 00:49:34 48° WNW 00:54:34 10° N
Landsat 5 4.0 00:45:16 10° S 00:49:34 42° WSW 00:53:51 10° NW
Meteor 2-3 Rocket 3.8 00:43:45 10° SSW 00:49:36 74° W 00:55:25 10° N
Meteor 2-14 Rocket 4.4 00:43:51 10° S 00:50:03 78° W 00:56:08 10° N
FALCON 9 DEB 3.7 00:48:44 14° WSW 00:51:08 36° NW 00:54:04 10° NNE
Cosmos 921 Rocket 3.6 00:48:30 10° S 00:53:03 66° ESE 00:57:32 10° NNE
IRIDIUM 104 4.5 00:48:12 10° N 00:53:27 85° E 00:58:46 10° S
CORIOLIS 4.4 00:48:22 10° N 00:53:31 47° W 00:58:47 10° SSW
Okean O Rocket 1.6 00:49:44 10° N 00:54:05 67° W 00:58:31 10° SSW
YAOGAN 1 4.5 00:51:28 10° NE 00:55:18 31° ESE 00:59:12 10° S
Cosmos 1763 Rocket 4.1 00:50:44 10° SW 00:55:35 36° W 01:00:20 10° NNW
H-2A R/B 2.5 00:51:48 10° N 00:56:04 64° WNW 01:00:14 10° SSW
Cosmos 1603 3.8 00:52:28 10° SSW 00:58:12 69° WNW 01:03:54 10° NNE
Meteor 1-4 Rocket 3.2 00:55:19 10° NW 00:58:34 32° WSW 01:01:48 10° SSW
NOSS 3-1 (C) 4.4 00:54:42 10° WSW 00:58:55 21° WNW 01:02:46 10° NNW
Meteor 1-27 4.2 00:55:09 10° NNW 01:00:39 61° W 01:06:14 10° S
IRIDIUM 114 4.3 00:57:22 10° N 01:02:36 79° W 01:07:55 10° S
CZ-4C R/B 4.2 01:01:48 10° SSW 01:04:36 22° WSW 01:07:19 10° WNW
USA 215 3.4 00:59:58 10° SE 01:06:25 56° SW 01:12:49 10° WNW
MOS 1 Rocket 4.4 01:01:48 10° S 01:06:36 31° WSW 01:11:20 10° NW
Cosmos 841 Rocket 3.6 01:04:40 10° SSW 01:09:56 61° WNW 01:15:08 10° N
Okean-O 4.3 01:06:11 10° NE 01:10:17 37° ESE 01:14:25 10° S
Cosmos 1869 3.7 01:06:36 10° NNW 01:10:33 45° W 01:14:34 10° S
Cosmos 2263 Rocket 3.2 01:06:06 10° WNW 01:10:46 25° WSW 01:15:28 10° S
Cosmos-2242 4.0 01:07:00 10° NW 01:10:48 28° WSW 01:14:39 10° SSW
IRIDIUM 103 4.4 01:06:33 10° NNW 01:11:44 64° W 01:17:01 10° S
Cosmos 1844 Rocket 3.1 01:06:21 10° NNW 01:11:59 71° ENE 01:17:41 10° SSE
